SCP
0 0 0 0 0 0 0 0 1 2 2 3 3 3 2 1 1 0 0 0 0 0 0 0 0 0 0 0 0 0 0 0 0 0 0 0 0 0 0 0 0 0 0
0 0 0 0 0 0 0 0 1 1 2 2 3 2 1 1 0 0 0 0 0 0 0 0 0 0 0 0 0 0 0 0 0 0 0 0 0 0 0 0 0 0 0
0 0 0 0 0 0 0 0 0 1 2 2 2 1 1 0 0 0 0 0 0 0 0 0 0 0 0 0 0 0 0 0 0 0 0 0 0 0 0 0 0 0 0
0 0 0 0 0 0 0 0 0 1 1 2 2 1 0 0 0 0 0 0 0 0 0 0 0 0 0 0 0 0 0 0 0 0 0 0 0 0 0 0 0 0 0
0 0 0 0 0 0 0 0 0 0 1 1 1 1 0 0 0 0 0 0 0 0 0 0 0 0 0 0 0 0 0 0 0 0 0 0 0 0 0 0 0 0 0
0 0 0 0 0 0 0 0 0 0 1 1 1 0 0 0 0 0 0 0 0 0 0 0 0 0 0 0 0 0 0 0 0 0 0 0 0 0 0 0 0 0 0
0 0 0 0 0 0 0 0 0 0 1 1 1 0 0 0 0 0 0 0 0 0 0 0 0 0 0 0 0 0 0 0 0 0 0 0 0 0 0 0 0 0 0
0 0 0 0 0 0 0 0 0 0 0 0 0 0 0 0 0 0 0 0 0 0 0 0 0 0 0 0 0 0 0 0 0 0 0 0 0 0 0 0 0 0 0
0 0 0 0 0 0 0 0 0 0 0 0 0 0 0 0 0 0 0 0 0 0 0 0 0 0 0 0 0 0 0 0 0 0 0 0 0 0 0 0 0 0 0
0 0 0 0 0 0 0 0 0 0 0 0 0 0 0 0 0 0 0 0 0 0 0 0 0 0 0 0 0 0 0 0 0 0 0 0 0 0 0 0 0 0 0
0 0 0 0 0 0 0 0 0 0 0 0 0 0 0 0 0 0 0 0 0 0 0 0 0 0 0 0 0 0 0 0 0 0 0 0 0 0 0 0 0 0 0
0 0 0 0 0 0 0 0 0 0 0 0 0 0 0 0 0 0 0 0 0 0 0 0 0 0 0 0 0 0 0 0 0 0 0 0 0 0 0 0 0 0 0
0 0 0 0 0 0 0 0 0 0 0 0 0 0 0 0 0 0 0 0 0 0 0 0 0 0 0 0 0 0 0 0 0 0 0 0 0 0 0 0 0 0 0
0 0 0 0 0 0 0 0 0 0 0 0 0 0 0 0 0 0 0 0 0 0 0 0 0 0 0 0 0 0 0 0 0 0 0 0 0 0 0 0 0 0 0
0 0 0 0 0 0 0 0 0 0 0 0 0 0 0 0 0 0 0 0 0 0 0 0 0 0 0 0 0 0 0 0 0 0 0 0 0 0 0 0 0 0 0
0 0 0 0 0 0 0 0 0 0 0 0 0 0 0 0 0 0 0 0 0 0 0 0 0 0 0 0 0 0 0 0 0 0 0 0 0 0 0 0 0 0 0
0 0 0 0 0 0 0 0 0 0 0 0 0 0 0 0 0 0 0 0 0 0 0 0 0 0 0 0 0 0 0 0 0 0 0 0 0 0 0 0 0 0 0
0 0 0 -0 0 0 0 0 0 0 0 0 0 0 0 0 0 0 0 0 0 0 0 0 0 0 0 0 0 0 0 0 0 0 0 0 0 0 0 0 0 0 0
0 0 0 0 0 0 0 0 0 0 0 0 0 0 0 0 0 0 0 0 0 0 0 0 0 0 0 0 0 0 0 0 0 0 0 0 0 0 0 0 0 0 0
0 0 0 0 0 0 0 0 0 0 0 0 0 0 0 0 0 0 0 0 0 0 0 0 0 0 0 0 0 0 0 0 0 0 0 0 0 0 0 0 0 0 0
0 0 0 0 0 0 0 0 0 0 0 0 0 0 0 0 0 0 0 0 0 0 0 0 0 0 0 0 0 0 0 0 0 0 0 0 0 0 0 0 0 0 0
0 0 0 0 0 0 0 0 0 0 0 0 0 0 0 0 0 0 0 0 0 0 0 0 0 0 0 0 0 0 0 0 0 0 0 0 0 0 0 0 0 0 0
0 0 0 0 0 0 0 0 0 0 0 0 0 0 0 0 0 0 0 0 0 0 0 0 0 0 0 0 0 0 0 0 0 0 0 0 0 0 0 0 0 0 0
0 0 0 0 0 0 0 0 0 0 0 0 0 0 0 0 0 0 0 0 0 0 0 0 0 0 0 0 0 0 0 0 0 0 0 0 0 0 0 0 0 0 0
0 0 0 0 0 0 0 0 0 0 0 0 0 0 0 0 0 0 0 0 0 0 0 0 0 0 0 0 0 0 0 0 0 0 0 0 0 0 0 0 0 0 0
0 0 0 0 0 0 0 0 0 0 0 0 0 0 0 0 0 0 0 0 0 0 0 0 0 0 0 0 0 0 0 0 0 0 0 -0 0 0 0 0 0 0 0
Wind_Speed
11 10 10 9 9 9 10 10 12 12 10 8 8 7 6 5 4 3 6 7 8 9 8 6 6 6 5 5 5 4 4 3 3 3 2 1 1 2 2 1 0 1 1
12 11 10 9 9 9 9 9 10 12 12 9 8 6 6 5 4 4 5 7 9 9 8 8 6 6 6 6 5 4 3 2 3 2 2 2 2 2 2 2 2 1 0
12 11 10 10 9 9 9 8 9 10 11 11 8 8 7 5 4 4 4 6 8 8 8 8 7 6 6 5 5 4 4 2 2 3 2 2 1 3 3 2 1 1 0
10 9 9 9 9 9 8 8 9 10 11 13 13 15 10 8 6 5 5 7 8 8 9 9 8 7 6 6 5 4 3 3 2 1 2 2 2 0 4 4 2 2 2
8 8 8 8 8 7 7 8 9 10 11 13 15 14 10 7 9 9 10 8 7 8 8 9 8 8 6 6 6 4 4 3 2 2 1 1 0 1 2 4 4 4 3
4 5 5 6 6 5 5 6 8 9 11 13 15 14 14 14 15 13 12 9 7 7 8 9 8 8 6 6 5 4 5 4 3 1 1 1 0 0 1 3 4 4 4
4 4 4 5 5 5 5 6 8 8 10 12 13 12 14 16 17 16 13 12 9 8 8 9 8 7 6 6 5 5 4 3 2 0 0 1 0 0 1 2 4 5 4
5 5 5 5 5 6 6 7 8 8 10 11 11 11 14 11 10 11 12 11 9 8 9 9 9 8 7 6 5 4 3 2 2 2 1 0 1 1 1 2 3 5 4
6 7 7 6 6 6 7 8 9 9 10 11 11 13 13 12 12 12 11 10 10 10 10 10 10 8 6 6 5 3 2 3 2 1 0 1 1 1 1 2 2 3 6
7 8 7 6 6 6 6 7 9 10 11 12 12 11 12 12 13 12 13 13 13 11 12 10 9 8 6 6 4 3 2 1 1 1 2 2 2 2 2 2 3 4 6
8 7 7 6 6 6 6 7 8 10 12 13 13 13 12 13 13 12 13 14 13 12 11 10 9 8 6 5 3 3 3 1 2 2 3 3 3 2 2 3 3 4 5
7 7 7 6 5 4 5 7 9 11 13 14 14 13 13 13 13 14 14 13 13 11 10 9 8 7 6 4 3 2 2 2 3 3 3 3 3 3 3 3 4 4 5
7 6 5 3 2 2 6 9 11 13 14 14 14 14 13 13 15 15 14 13 12 11 10 8 8 7 5 3 2 1 1 2 3 3 3 4 3 4 4 4 4 4 6
6 5 3 1 2 5 8 11 13 13 14 14 14 14 13 14 15 14 13 13 12 11 9 8 7 6 4 3 2 2 2 3 4 4 4 4 4 5 4 5 5 6 6
6 4 2 2 4 7 9 11 12 12 13 13 13 13 14 14 14 14 13 12 11 10 9 8 6 5 3 3 3 3 4 4 5 5 5 4 7 10 8 7 6 6 6
3 2 2 4 6 9 10 11 11 11 11 12 13 13 15 15 14 14 13 12 11 9 8 7 5 4 3 4 3 3 3 5 5 6 5 5 7 10 14 17 17 15 11
1 2 4 5 8 9 10 10 11 12 12 12 13 14 15 15 14 14 13 11 9 8 7 5 4 4 4 3 2 5 4 5 6 6 5 6 6 11 6 11 16 15 20
3 3 5 7 9 10 10 10 11 12 12 13 14 14 15 15 14 13 11 9 7 6 5 4 3 2 3 3 2 7 5 5 6 6 6 6 6 8 10 8 7 7 10
5 6 7 9 10 10 11 12 11 11 12 13 13 13 14 14 13 12 10 7 6 5 4 3 2 1 1 1 3 6 3 4 6 6 7 8 7 15 19 11 8 10 10
8 8 9 10 11 10 11 12 12 12 12 12 13 13 12 12 12 10 8 6 6 5 4 2 1 0 0 1 4 7 2 4 5 5 7 13 15 18 20 11 10 13 12
10 10 10 9 9 10 11 12 12 12 12 13 13 12 11 11 11 9 7 6 5 3 2 1 0 1 1 2 6 8 3 4 5 5 5 7 18 21 23 21 11 15 17
10 10 10 10 9 10 11 13 12 12 12 13 13 12 10 9 8 8 6 5 4 2 1 1 2 2 2 3 6 10 11 11 6 6 5 8 20 23 24 17 17 22 18
9 9 11 11 10 9 10 13 13 12 13 13 12 11 9 8 7 6 6 4 3 2 2 2 2 2 2 4 9 12 15 17 9 7 15 20 23 21 14 16 20 16 7
9 9 10 12 11 11 11 11 12 12 13 13 11 9 8 7 6 5 4 3 3 3 2 2 2 3 3 3 3 4 6 11 9 8 13 19 19 16 15 14 10 7 7
8 8 9 11 13 12 12 10 10 12 13 11 9 7 7 6 5 4 4 4 3 3 2 1 2 3 3 7 14 10 7 7 8 11 6 5 7 6 6 7 7 6 7
9 10 11 12 12 12 12 9 8 10 12 10 7 5 5 4 4 3 2 3 2 2 1 2 3 4 8 13 15 16 17 18 18 11 5 6 7 7 9 9 10 9 9
Wind_Direction
243 239 235 228 219 208 200 189 176 173 170 169 168 166 161 148 135 132 135 133 126 120 119 117 112 113 115 117 116 111 96 45 356 356 341 299 209 206 170 171 139 210 189
241 239 235 232 227 217 202 194 181 175 174 174 168 156 134 117 101 93 101 112 114 118 121 119 117 114 111 100 95 94 99 67 34 40 8 349 332 309 230 174 193 242 58
237 237 235 233 229 224 210 201 191 180 172 162 145 125 102 93 97 102 97 102 110 114 121 122 119 114 110 109 102 98 101 117 67 54 84 95 299 321 315 270 223 228 314
237 238 238 237 229 223 213 205 195 183 170 161 157 156 159 156 154 136 120 113 114 118 122 123 120 114 111 114 112 99 102 107 114 83 63 114 128 81 319 319 326 355 334
228 234 235 236 236 225 211 205 196 185 172 167 162 162 158 137 131 129 128 123 121 122 125 123 120 117 115 114 106 95 83 95 101 97 74 49 33 198 211 284 306 326 318
247 246 243 238 240 236 217 204 193 184 172 165 162 164 157 146 146 147 143 136 131 126 125 122 119 117 116 118 114 107 87 82 84 72 82 115 149 320 275 277 299 297 290
315 293 277 260 244 233 220 203 187 179 166 160 161 162 152 151 154 152 149 145 143 141 138 130 123 118 118 115 108 100 99 95 94 64 50 57 283 250 253 275 289 294 298
308 296 284 273 259 236 213 197 185 174 161 156 156 149 142 146 150 150 148 146 144 141 136 128 120 121 122 120 114 115 130 136 182 226 184 231 264 260 242 254 293 303 290
296 287 284 276 267 248 216 195 181 169 157 151 143 139 140 142 144 142 138 135 136 138 133 127 125 128 127 124 124 133 159 169 201 203 226 258 256 246 246 249 241 265 290
299 297 290 281 270 246 218 193 174 160 149 140 137 137 135 137 139 139 138 137 138 134 132 128 126 125 123 128 136 143 147 158 226 193 234 263 261 266 263 258 257 248 268
298 294 293 290 278 247 208 176 161 144 136 130 127 129 130 133 135 135 134 134 132 133 132 130 128 128 131 136 140 153 155 206 258 257 245 258 264 266 268 267 265 262 264
299 294 292 289 281 231 176 151 140 131 127 124 125 126 129 133 133 131 131 131 130 129 127 126 125 125 124 125 132 151 169 233 259 271 276 278 283 281 275 270 268 271 272
305 300 301 309 319 136 126 122 121 120 120 122 126 129 133 134 132 130 129 127 124 120 117 115 115 115 113 107 91 69 323 290 279 273 268 270 276 277 275 280 282 281 288
309 301 295 355 35 88 103 108 111 114 119 123 130 134 134 132 128 125 122 120 117 114 111 107 107 109 111 107 72 21 329 307 297 287 275 267 262 262 269 280 275 278 281
309 312 327 90 89 95 100 105 108 112 120 126 130 131 127 123 120 118 116 113 111 110 107 106 107 111 118 94 59 9 335 324 312 303 293 286 288 290 290 286 277 281 281
308 324 49 94 106 106 106 107 110 114 120 125 127 125 123 120 117 114 112 108 106 105 106 111 120 124 111 96 43 347 329 318 308 301 298 297 296 296 301 305 305 302 301
65 61 77 92 99 103 108 110 114 117 121 125 125 122 120 116 114 114 111 110 110 111 112 115 117 115 121 111 11 332 325 304 293 292 293 298 298 306 293 293 298 299 299
104 94 92 92 94 99 103 106 111 118 122 124 122 120 118 115 112 110 110 109 111 115 115 114 110 112 145 135 352 333 331 305 299 298 296 294 292 295 299 287 289 281 290
95 92 93 98 100 103 108 112 116 119 122 122 120 118 117 115 114 113 111 111 112 109 107 107 103 93 138 153 341 338 319 305 306 308 313 315 301 303 310 312 300 294 290
90 93 96 101 104 108 113 119 122 122 119 117 114 112 113 113 112 111 108 105 105 106 110 116 134 157 228 286 326 331 309 307 307 306 306 311 310 310 314 311 301 301 299
97 100 101 103 109 116 119 120 118 116 116 114 110 106 104 105 107 106 105 106 105 107 114 136 250 268 263 319 321 323 315 290 293 298 299 298 310 311 311 310 302 298 303
108 109 111 112 115 121 122 118 115 113 111 108 104 101 101 104 107 107 104 102 102 97 82 53 360 346 355 334 317 322 326 325 313 304 298 300 311 312 312 312 306 308 312
112 116 119 117 114 114 119 119 118 117 113 107 104 103 100 97 100 103 104 99 88 73 51 33 0 340 347 336 339 338 332 326 321 308 312 314 315 315 313 309 313 318 311
116 122 121 118 113 111 111 114 117 117 112 108 106 105 103 98 88 82 84 86 76 60 36 18 1 345 340 335 337 324 316 317 314 305 307 314 314 313 314 316 317 309 297
110 110 112 111 109 110 109 110 114 115 110 107 105 102 99 101 94 81 70 78 83 91 68 24 1 343 323 318 326 326 316 312 305 312 307 306 309 313 315 312 308 306 307
110 106 105 107 109 109 108 107 109 115 114 110 105 102 101 97 98 97 79 77 105 94 18 323 322 315 316 322 327 325 323 323 322 324 315 312 314 314 314 315 314 312 309